Tracking 28764 objects as of 13-Apr-2024
HD Live streaming from Space Station
objects crossing your sky now

METEOR 2-17 DEB

Track METEOR 2-17 DEB now!
10-day predictions


NORAD ID: 35368
Int'l Code: 1988-005AC
Perigee: 871.9 km
Apogee: 906.7 km
Inclination: 82.6 °
Period: 102.6 minutes
Semi major axis: 7260 km
RCS: 0.0006 m2 (small)
Launch date: January 30, 1988
Source: Commonwealth of Independent States (former USSR) (CIS)
Launch site: PLESETSK MISSILE AND SPACE COMPLEX (PKMTR)

Note: This is SATELLITE DEBRIS
Your satellite tracking list
Your tracking list is empty




NASA's NSSDC Master Catalog

Two Line Element Set (TLE):
1 35368U 88005AC  24103.53839520  .00003246  00000-0  20629-2 0  9997
2 35368  82.5595 182.4426 0023985 249.5292 110.3304 14.03376008866721
Source of the keplerian elements: AFSPC